Weather History for KEPH - March, 2014

Change the Weather History Date:

Wednesday, March 5, 2014

  Actual Average Record
Temperature  
Mean Temperature 50 °F 39 °F  
Max Temperature 63 °F 50 °F 63 °F (2014)
Min Temperature 36 °F 29 °F 5 °F (1955)
Degree Days  
Heating Degree Days 15 26  
Month to date heating degree days 164 132  
Since 1 July heating degree days 4746 4705  
Cooling Degree Days 0 0  
Month to date cooling degree days 0 0  
Year to date cooling degree days 0 0  
Moisture  
Dew Point 44 °F    
Average Humidity 76    
Maximum Humidity 96    
Minimum Humidity 55    
Precipitation  
Precipitation 0.35 in 0.02 in 0.35 in (2014)
Month to date precipitation 0.44 0.13  
Year to date precipitation 1.41 1.78  
Sea Level Pressure  
Sea Level Pressure 29.64 in    
Wind  
Wind Speed 7 mph (SSW)    
Max Wind Speed 15 mph    
Max Gust Speed 20 mph    
Visibility 8 miles    
Events Rain    
T = Trace of Precipitation, MM = Missing Value Source: NWS Daily Summary

Daily Weather History Graph

Daily Weather History Graph

Search for Another Location

Airport or City:

Trip Planner

Search our weather history database for the weather conditions in past years. The results will help you decide how hot, cold, wet, or windy it might be!

Date:

Astronomy

Mar. 05, 2014 Rise Set
Actual Time 6:30 AM PST 5:49 PM PST
Civil Twilight 5:59 AM PST 6:19 PM PST
Nautical Twilight 5:24 AM PST 6:55 PM PST
Astronomical Twilight 4:48 AM PST 7:31 PM PST
Moon 8:39 AM PST (3/5) 11:25 PM PST (3/5)
Length of Visible Light 12h 20m
Length of Day
11h 18m
Waxing Crescent, 24% of the Moon is Illuminated
Mar 5
Waxing Crescent
Mar 8
First Quarter
Mar 16
Full
Mar 23
Last Quarter
Mar 30
New

Hourly Weather History & Observations

Time (PST) Temp. Windchill Dew Point Humidity Pressure Visibility Wind Dir Wind Speed Gust Speed Precip Events Conditions
12:53 AM 36.0 °F 32.1 °F 33.1 °F 89% 29.88 in 8.0 mi North 4.6 mph - N/A   Mostly Cloudy
1:53 AM 36.0 °F 30.3 °F 34.0 °F 93% 29.86 in 9.0 mi North 6.9 mph - N/A   Overcast
2:53 AM 37.0 °F 29.8 °F 34.0 °F 89% 29.81 in 10.0 mi NNE 10.4 mph - N/A   Overcast
3:53 AM 37.9 °F 32.7 °F 35.1 °F 89% 29.79 in 8.0 mi North 6.9 mph - 0.00 in   Overcast
4:53 AM 37.9 °F 30.9 °F 36.0 °F 93% 29.76 in 7.0 mi North 10.4 mph - 0.02 in Rain Light Rain
5:53 AM 39.0 °F 34.0 °F 37.0 °F 93% 29.75 in 10.0 mi North 6.9 mph - 0.00 in   Overcast
6:53 AM 39.9 °F 35.8 °F 37.9 °F 93% 29.73 in 8.0 mi North 5.8 mph - 0.01 in Rain Light Rain
7:53 AM 41.0 °F 36.4 °F 39.0 °F 93% 29.72 in 9.0 mi North 6.9 mph - 0.00 in   Overcast
8:18 AM 42.8 °F 38.6 °F 39.2 °F 87% 29.72 in 10.0 mi North 6.9 mph - N/A   Overcast
8:53 AM 44.1 °F - 39.9 °F 85% 29.73 in 10.0 mi Calm Calm - 0.00 in Rain Light Rain
9:13 AM 46.4 °F - 39.2 °F 76% 29.70 in 10.0 mi Calm Calm - 0.00 in   Scattered Clouds
9:53 AM 48.0 °F - 42.1 °F 80% 29.73 in 10.0 mi SSE 3.5 mph - 0.00 in   Clear
10:53 AM 53.1 °F - 44.1 °F 71% 29.72 in 10.0 mi SSW 10.4 mph - N/A   Clear
11:53 AM 54.0 °F - 45.0 °F 72% 29.72 in 10.0 mi South 11.5 mph - N/A   Mostly Cloudy
12:53 PM 57.9 °F - 46.0 °F 65% 29.70 in 10.0 mi SSW 8.1 mph - N/A   Partly Cloudy
1:53 PM 61.0 °F - 45.0 °F 56% 29.66 in 10.0 mi SSW 10.4 mph - N/A   Clear
2:53 PM 60.1 °F - 46.0 °F 60% 29.66 in 10.0 mi WSW 9.2 mph - N/A   Clear
3:53 PM 60.1 °F - 46.9 °F 62% 29.63 in 10.0 mi SW 8.1 mph - N/A   Mostly Cloudy
4:53 PM 55.0 °F - 50.0 °F 83% 29.61 in 8.0 mi SSW 6.9 mph - 0.01 in Rain Light Rain
5:53 PM 53.1 °F - 50.0 °F 89% 29.59 in 10.0 mi South 4.6 mph - 0.04 in Rain Light Rain
6:53 PM 52.0 °F - 50.0 °F 93% 29.57 in 6.0 mi SE 6.9 mph - 0.10 in Rain Rain
7:53 PM 50.0 °F - 48.9 °F 96% 29.53 in 8.0 mi SSE 9.2 mph - 0.08 in Rain Light Rain
8:29 PM 50.0 °F - 48.2 °F 94% 29.52 in 5.0 mi South 4.6 mph - 0.04 in Rain Rain
8:37 PM 50.0 °F - 48.2 °F 94% 29.51 in 7.0 mi SSE 4.6 mph - 0.05 in Rain Light Rain
8:50 PM 50.0 °F - 48.2 °F 94% 29.51 in 9.0 mi Calm Calm - 0.05 in Rain Light Rain
8:53 PM 50.0 °F - 48.9 °F 96% 29.52 in 9.0 mi Calm Calm - 0.05 in Rain Light Rain
9:15 PM 50.0 °F - 48.2 °F 94% 29.50 in 10.0 mi Calm Calm - 0.00 in Rain Light Rain
9:53 PM 50.0 °F - 48.0 °F 93% 29.50 in 10.0 mi South 5.8 mph - 0.00 in   Overcast
10:32 PM 50.0 °F - 48.2 °F 94% 29.50 in 6.0 mi South 10.4 mph - 0.03 in Rain Light Rain
10:53 PM 48.9 °F - 46.9 °F 93% 29.49 in 8.0 mi South 9.2 mph - 0.04 in Rain Light Rain
11:01 PM 48.2 °F - 46.4 °F 93% 29.48 in 9.0 mi South 10.4 mph - 0.00 in Rain Light Rain
11:53 PM 48.9 °F - 48.0 °F 97% 29.49 in 3.0 mi SW 8.1 mph - 0.00 in   Overcast
11:59 PM 48.2 °F - 48.2 °F 100% 29.48 in 2.5 mi SW 6.9 mph - N/A   Overcast